Location: Caltech
(34.1382°N, 118.1253°W)
Time: 04:06:25
(UTC-08:00)

SO-67 - Visible Passes

Search period start: 12 December 2017 00:00
Search period end: 22 December 2017 00:00
Orbit: 397 x 402 km, 97.1° (Epoch: 11 December)

Date Brightness Start Highest point End Pass type
(mag) Time Alt. Az. Time Alt. Az. Time Alt. Az.
12 Dec ? 17:22:32 10° ESE 17:24:11 14° ENE 17:25:50 10° NE visible
12 Dec ? 18:53:31 10° SW 18:55:45 18° W 18:58:00 10° NW visible
13 Dec ? 06:11:01 10° NE 06:13:18 19° E 06:15:34 10° SE visible
13 Dec ? 18:02:20 10° SSE 18:05:22 60° ENE 18:08:26 10° N visible
14 Dec ? 17:14:54 10° ENE 17:15:19 10° ENE 17:15:45 10° ENE visible
14 Dec ? 18:44:10 10° SSW 18:46:46 25° W 18:49:24 10° NW visible
15 Dec ? 06:02:35 10° ENE 06:04:18 14° E 06:06:01 10° SE visible
15 Dec ? 17:53:31 10° SSE 17:56:27 41° ENE 17:59:23 10° N visible
16 Dec ? 18:34:56 10° SSW 18:37:47 34° W 18:40:39 10° NNW visible
17 Dec ? 05:54:51 10° E 05:55:16 10° E 05:55:42 10° ESE visible
17 Dec ? 17:44:45 10° SE 17:47:29 29° ENE 17:50:13 10° NNE visible
18 Dec ? 18:25:45 10° S 18:28:45 50° W 18:31:46 10° NNW visible
19 Dec ? 17:36:04 10° SE 17:38:30 22° ENE 17:40:57 10° NNE visible
19 Dec ? 19:09:11 10° WSW 19:10:14 11° W 19:11:18 10° WNW visible
20 Dec ? 06:24:55 10° NNE 06:27:43 31° E 06:30:31 10° SSE visible
20 Dec ? 18:16:38 10° S 18:19:42 74° WSW 18:22:47 10° NNW visible
21 Dec ? 17:27:30 10° ESE 17:29:30 16° ENE 17:31:29 10° NNE visible
21 Dec ? 18:59:11 10° SW 19:01:07 15° W 19:03:03 10° NW visible
